Fairbanks, AK

10:09 PM AKST on December 06, 2019 (GMT -0900)
Fairbanks International

Weather History for PAFA - December, 1974

Change the Weather History Date:

Friday, December 27, 1974

  Actual Average Record
Temperature  
Mean Temperature -21 °F -6 °F  
Max Temperature -9 °F 3 °F 38 °F (1909)
Min Temperature -33 °F -13 °F -58 °F (1961)
Degree Days  
Heating Degree Days 86 71  
Month to date heating degree days 1856  
Since 1 July heating degree days 5987  
Cooling Degree Days 0 0  
Month to date cooling degree days 0  
Year to date cooling degree days 61  
Moisture  
Dew Point -30 °F    
Average Humidity 58    
Maximum Humidity 81    
Minimum Humidity 46    
Precipitation  
Precipitation 0.03 in 0.02 in 0.78 in (1965)
Month to date precipitation 0.55  
Year to date precipitation 10.72  
Snow  
Snow 0.00 in 0.40 in 12.90 in (1965)
Month to date snowfall 10.5  
Since 1 July snowfall 36.3  
Snow Depth -    
Sea Level Pressure  
Sea Level Pressure 29.70 in    
Wind  
Wind Speed 3 mph (West)    
Max Wind Speed 9 mph    
Max Gust Speed -    
Visibility 4 miles    
Events Fog , Snow    
T = Trace of Precipitation, MM = Missing Value Source: NWS Daily Summary

Daily Weather History Graph

Daily Weather History Graph

Search for Another Location

Airport or City:

Astronomy

Dec. 27, 1974 Rise Set
Actual Time 9:58 AM AHST 1:46 PM AHST
Civil Twilight 8:34 AM AHST 3:10 PM AHST
Nautical Twilight 7:23 AM AHST 4:22 PM AHST
Astronomical Twilight 6:21 AM AHST 5:23 PM AHST
Moon 12:43 PM AHST (12/27) 8:30 AM AHST (12/27)
Length of Visible Light 6h 36m
Length of Day
3h 47m
Waxing Gibbous, 98% of the Moon is Illuminated
Dec 27
Waxing Gibbous
Dec 28
Full
Jan 4
Last Quarter
Jan 12
New
Jan 20
First Quarter

Hourly Weather History & Observations

Time (AHST) Temp. Windchill Dew Point Humidity Pressure Visibility Wind Dir Wind Speed Gust Speed Precip Events Conditions
12:00 AM -9.9 °F - -23.1 °F 52% 29.68 in 7.0 mi Calm Calm - 0.01 in Snow Light Snow
12:46 AM - - - N/A% 29.63 in 3.0 mi Calm Calm - N/A   Unknown
1:00 AM -9.0 °F - -20.0 °F 59% 29.69 in 3.0 mi Calm Calm - N/A Snow Light Snow
2:00 AM -9.0 °F -20.4 °F -20.9 °F 56% 29.70 in 3.0 mi NNE 4.6 mph - 0.01 in Snow Light Snow
2:22 AM - - - N/A% 29.65 in 4.0 mi East 3.5 mph - N/A   Unknown
3:00 AM -9.0 °F -18.2 °F -20.9 °F 56% 29.71 in 4.0 mi ENE 3.5 mph - N/A Snow Light Snow
4:00 AM -9.0 °F -22.3 °F -20.0 °F 59% 29.71 in 4.0 mi WSW 5.8 mph - N/A Snow Light Snow
5:00 AM -9.0 °F -25.2 °F -20.9 °F 56% 29.71 in 5.0 mi SW 8.1 mph - 0.01 in Snow Light Snow
5:24 AM - - - N/A% 29.66 in 3.0 mi SW 9.2 mph - N/A   Unknown
6:00 AM -9.9 °F -24.9 °F -24.0 °F 50% 29.72 in 6.0 mi SSW 6.9 mph - N/A Snow Light Snow
7:00 AM -13.0 °F -30.0 °F -27.0 °F 50% 29.73 in 6.0 mi SSW 8.1 mph - 0.01 in Snow Light Snow
8:00 AM -14.1 °F -28.3 °F -27.0 °F 52% 29.73 in 7.0 mi SW 5.8 mph - N/A Snow Light Snow
9:00 AM -17.0 °F -31.7 °F -29.0 °F 54% 29.74 in 6.0 mi South 5.8 mph - N/A Snow Light Snow
10:00 AM -18.0 °F -33.0 °F -31.0 °F 52% 29.74 in 6.0 mi SSW 5.8 mph - N/A Snow Light Snow
11:00 AM -20.0 °F -33.3 °F -35.0 °F 46% 29.74 in 7.0 mi South 4.6 mph - N/A   Mostly Cloudy
12:00 PM -23.1 °F -36.8 °F -34.1 °F 57% 29.73 in 6.0 mi East 4.6 mph - N/A Fog Fog
1:00 PM -22.0 °F -35.6 °F -34.1 °F 54% 29.73 in 4.0 mi North 4.6 mph - N/A Fog Fog
2:00 PM -24.0 °F -40.0 °F -38.9 °F 46% 29.72 in 3.0 mi North 5.8 mph - N/A Fog Fog
3:00 PM -25.1 °F -36.5 °F -31.0 °F 74% 29.71 in 3.0 mi North 3.5 mph - N/A Fog Fog
4:00 PM -24.0 °F -35.2 °F -36.9 °F 51% 29.70 in 3.0 mi North 3.5 mph - N/A Fog Fog
5:00 PM -24.0 °F -35.2 °F -38.0 °F 48% 29.70 in 3.0 mi North 3.5 mph - N/A Fog , Snow Light Snow
6:00 PM -24.0 °F -35.2 °F -38.0 °F 48% 29.69 in 3.0 mi North 3.5 mph - N/A Fog , Snow Light Snow
7:00 PM -26.0 °F - -32.1 °F 73% 29.68 in 3.0 mi Calm Calm - N/A Fog , Snow Light Snow
8:00 PM -29.0 °F - -35.0 °F 73% 29.68 in 3.0 mi Calm Calm - N/A Fog Ice Crystals
9:00 PM -31.0 °F - -36.9 °F 73% 29.67 in 3.0 mi Calm Calm - N/A Fog Ice Crystals
10:00 PM -33.0 °F -48.4 °F -38.9 °F 73% 29.68 in 3.0 mi SW 4.6 mph - N/A Fog Ice Crystals
11:00 PM -33.0 °F -45.5 °F -36.9 °F 81% 29.68 in 3.0 mi NW 3.5 mph - N/A Fog Ice Crystals